User: anonymous   Login
Location: Unspecified
(0.0000°N, 0.0000°E)
Time: 17:19:01
(UTC+00:00)
Language:

MKA PN2 (RELEK) - Orbit

View from above orbital plane
View from above orbital plane
View from above satellite
View from above satellite

Ground track
Ground track

The orbit data is extracted from the following two-line orbital elements,

1 40070U 14037B   21336.81827620  .00000123  00000-0  37371-4 0  9996
2 40070  98.0150 359.5144 0137495 172.7621 187.5604 14.52245529392297
Epoch (UTC): 02 December 2021 19:38:19
Eccentricity: 0.0137495
inclination: 98.0150°
perigee height: 621 km
apogee height: 816 km
right ascension of ascending node: 359.5144°
argument of perigee: 172.7621°
revolutions per day: 14.52245529
mean anomaly at epoch: 187.5604°
orbit number at epoch: 39229

The dashed part of the orbit path shows where the satellite is in the earth's shadow,  

DLR